Location: Bukit Nyuki
(2.5885°N, 113.7476°E)
Time: 15:43:47
(UTC+00:00)

ARIANE 3 DEB - Pass Details

Date: 18 May 2021
Orbit: 274 x 4689 km, 6.8° (Epoch: 20 June)

Event Time Altitude Azimuth Distance (km) Brightness Sun altitude
Exits shadow 21:41:32 10° 250° (WSW) 2,813 5.7 -8.5°
Reaches altitude 10° 21:41:35 10° 250° (WSW) 2,797 5.7 -8.5°
Maximum altitude 21:47:16 40° 181° (S) 839 3.6 -7.2°
Drops below altitude 10° 21:50:14 10° 108° (ESE) 1,457 5.8 -6.5°
Sets 21:51:51 0° 99° (E) 2,121 7.0 -6.1°
